| time (UTC) | temp F | wind direction | speed MPH | gust MPH | rain 1hr in | rain 24hr in | rain mn in | humidity % | barometer mb |
| 20260506104654 | 73 | 216 | 11.0 | 22.0 | 0.00 | 0.00 | 0.00 | 31 | 1008.7 |
| 20260506104153 | 73 | 219 | 7.0 | 24.0 | 0.00 | 0.00 | 0.00 | 31 | 1008.7 |
| 20260506103653 | 73 | 198 | 14.0 | 27.0 | 0.00 | 0.00 | 0.00 | 30 | 1008.7 |
| 20260506103153 | 73 | 220 | 5.0 | 27.0 | 0.00 | 0.00 | 0.00 | 31 | 1008.7 |
| 20260506102653 | 73 | 206 | 13.0 | 24.0 | 0.00 | 0.00 | 0.00 | 31 | 1008.7 |
| 20260506102152 | 73 | 255 | 6.0 | 21.0 | 0.00 | 0.00 | 0.00 | 30 | 1008.6 |
| 20260506101652 | 73 | 225 | 6.0 | 19.0 | 0.00 | 0.00 | 0.00 | 31 | 1008.7 |
| 20260506101152 | 73 | 215 | 8.0 | 18.0 | 0.00 | 0.00 | 0.00 | 31 | 1008.7 |
| 20260506100651 | 73 | 187 | 13.0 | 20.0 | 0.00 | 0.00 | 0.00 | 30 | 1008.7 |
| 20260506100151 | 73 | 225 | 7.0 | 26.0 | 0.00 | 0.00 | 0.00 | 30 | 1008.8 |
| 20260506095651 | 73 | 209 | 14.0 | 18.0 | 0.00 | 0.00 | 0.00 | 29 | 1008.7 |
| 20260506095151 | 73 | 196 | 12.0 | 20.0 | 0.00 | 0.00 | 0.00 | 29 | 1008.7 |
| 20260506094650 | 72 | 272 | 5.0 | 25.0 | 0.00 | 0.00 | 0.00 | 29 | 1008.7 |
| 20260506094150 | 73 | 139 | 8.0 | 18.0 | 0.00 | 0.00 | 0.00 | 29 | 1008.7 |
| 20260506093650 | 72 | 230 | 18.0 | 22.0 | 0.00 | 0.00 | 0.00 | 29 | 1008.8 |
| 20260506093149 | 72 | 191 | 14.0 | 24.0 | 0.00 | 0.00 | 0.00 | 31 | 1008.8 |
| 20260506092649 | 72 | 212 | 5.0 | 25.0 | 0.00 | 0.00 | 0.00 | 31 | 1008.8 |
| 20260506092149 | 72 | 180 | 6.0 | 15.0 | 0.00 | 0.00 | 0.00 | 33 | 1008.8 |
| 20260506091649 | 72 | 246 | 2.0 | 20.0 | 0.00 | 0.00 | 0.00 | 32 | 1008.8 |
| 20260506091148 | 71 | 175 | 7.0 | 18.0 | 0.00 | 0.00 | 0.00 | 33 | 1008.8 |
| 20260506090648 | 71 | 223 | 9.0 | 19.0 | 0.00 | 0.00 | 0.00 | 32 | 1008.9 |
| 20260506090148 | 72 | 136 | 17.0 | 20.0 | 0.00 | 0.00 | 0.00 | 32 | 1008.9 |
| 20260506085647 | 71 | 175 | 11.0 | 15.0 | 0.00 | 0.00 | 0.00 | 33 | 1008.7 |
| 20260506085147 | 71 | 209 | 11.0 | 20.0 | 0.00 | 0.00 | 0.00 | 32 | 1008.8 |
| 20260506084647 | 71 | 165 | 9.0 | 23.0 | 0.00 | 0.00 | 0.00 | 32 | 1008.7 |
| 20260506084147 | 71 | 192 | 6.0 | 22.0 | 0.00 | 0.00 | 0.00 | 32 | 1008.7 |
| 20260506083646 | 71 | 236 | 9.0 | 19.0 | 0.00 | 0.00 | 0.00 | 32 | 1008.7 |
| 20260506083146 | 71 | 181 | 6.0 | 16.0 | 0.00 | 0.00 | 0.00 | 34 | 1008.6 |
| 20260506082646 | 71 | 210 | 11.0 | 19.0 | 0.00 | 0.00 | 0.00 | 32 | 1008.7 |
| 20260506082146 | 71 | 229 | 10.0 | 26.0 | 0.00 | 0.00 | 0.00 | 32 | 1008.6 |
| 20260506081645 | 70 | 156 | 6.0 | 20.0 | 0.00 | 0.00 | 0.00 | 33 | 1008.6 |
| 20260506081145 | 70 | 215 | 8.0 | 19.0 | 0.00 | 0.00 | 0.00 | 34 | 1008.6 |
| 20260506080645 | 70 | 172 | 9.0 | 22.0 | 0.00 | 0.00 | 0.00 | 33 | 1008.6 |
| 20260506080144 | 70 | 254 | 5.0 | 24.0 | 0.00 | 0.00 | 0.00 | 35 | 1008.6 |
| 20260506073143 | 69 | 172 | 9.0 | 22.0 | 0.00 | 0.00 | 0.00 | 34 | 1008.6 |
| 20260506072642 | 69 | 260 | 6.0 | 24.0 | 0.00 | 0.00 | 0.00 | 35 | 1008.6 |
| 20260506072142 | 69 | 196 | 3.0 | 19.0 | 0.00 | 0.00 | 0.00 | 36 | 1008.5 |
| 20260506071642 | 69 | 217 | 5.0 | 18.0 | 0.00 | 0.00 | 0.00 | 37 | 1008.5 |
| 20260506071142 | 68 | 217 | 14.0 | 19.0 | 0.00 | 0.00 | 0.00 | 36 | 1008.5 |
| 20260506070641 | 68 | 206 | 9.0 | 20.0 | 0.00 | 0.00 | 0.00 | 38 | 1008.4 |
| 20260506070141 | 68 | 181 | 3.0 | 19.0 | 0.00 | 0.00 | 0.00 | 38 | 1008.4 |
| 20260506062139 | 65 | 142 | 0.0 | 12.0 | 0.00 | 0.00 | 0.00 | 41 | 1008.5 |
| 20260506061638 | 65 | 198 | 2.0 | 9.0 | 0.00 | 0.00 | 0.00 | 41 | 1008.5 |
| 20260506061138 | 65 | 165 | 1.0 | 13.0 | 0.00 | 0.00 | 0.00 | 41 | 1008.5 |
| 20260506060638 | 65 | 149 | 3.0 | 8.0 | 0.00 | 0.00 | 0.00 | 41 | 1008.6 |
| 20260506060138 | 65 | 189 | 5.0 | 10.0 | 0.00 | 0.00 | 0.00 | 41 | 1008.7 |
| 20260506051135 | 65 | 289 | 6.0 | 12.0 | 0.00 | 0.00 | 0.00 | 40 | 1008.9 |
| 20260506050634 | 65 | 210 | 5.0 | 14.0 | 0.00 | 0.00 | 0.00 | 39 | 1008.8 |
| 20260506050134 | 65 | 205 | 7.0 | 14.0 | 0.00 | 0.00 | 0.00 | 39 | 1008.8 |
| 20260506045134 | 65 | 227 | 6.0 | 13.0 | 0.00 | 0.00 | 0.00 | 39 | 1008.7 |
| 20260506044633 | 65 | 240 | 7.0 | 8.0 | 0.00 | 0.00 | 0.00 | 40 | 1008.8 |
| 20260506044133 | 64 | 227 | 8.0 | 11.0 | 0.00 | 0.00 | 0.00 | 40 | 1008.7 |
| 20260506043633 | 63 | 223 | 1.0 | 10.0 | 0.00 | 0.00 | 0.00 | 42 | 1008.7 |
| 20260506043132 | 61 | 226 | 6.0 | 11.0 | 0.00 | 0.00 | 0.00 | 45 | 1008.6 |
| 20260506042632 | 60 | 143 | 0.0 | 2.0 | 0.00 | 0.00 | 0.00 | 48 | 1008.6 |
| 20260506042132 | 59 | 156 | 0.0 | 0.0 | 0.00 | 0.00 | 0.00 | 50 | 1008.6 |
| 20260506041632 | 58 | 156 | 0.0 | 0.0 | 0.00 | 0.00 | 0.00 | 50 | 1008.6 |
| 20260506041131 | 59 | 156 | 0.0 | 0.0 | 0.00 | 0.00 | 0.00 | 51 | 1008.6 |
| 20260506040631 | 59 | 156 | 0.0 | 0.0 | 0.00 | 0.00 | 0.00 | 48 | 1008.6 |
| 20260506040131 | 59 | 156 | 0.0 | 0.0 | 0.00 | 0.00 | 0.00 | 47 | 1008.7 |
| 20260506035631 | 59 | 156 | 0.0 | 0.0 | 0.00 | 0.00 | 0.00 | 46 | 1008.7 |
| 20260506035130 | 59 | 156 | 0.0 | 0.0 | 0.00 | 0.00 | 0.00 | 46 | 1008.7 |
| 20260506034630 | 59 | 156 | 0.0 | 0.0 | 0.00 | 0.00 | 0.00 | 45 | 1008.7 |
| 20260506034130 | 59 | 156 | 0.0 | 1.0 | 0.00 | 0.00 | 0.00 | 46 | 1008.7 |
| 20260506033629 | 59 | 209 | 0.0 | 3.0 | 0.00 | 0.00 | 0.00 | 46 | 1008.8 |
| 20260506033129 | 59 | 189 | 0.0 | 3.0 | 0.00 | 0.00 | 0.00 | 46 | 1008.7 |
| 20260506032629 | 58 | 98 | 0.0 | 1.0 | 0.00 | 0.00 | 0.00 | 46 | 1008.7 |
| 20260506032129 | 58 | 206 | 1.0 | 6.0 | 0.00 | 0.00 | 0.00 | 46 | 1008.7 |
| 20260506031628 | 58 | 189 | 3.0 | 3.0 | 0.00 | 0.00 | 0.00 | 46 | 1008.7 |
| 20260506031128 | 58 | 115 | 0.0 | 1.0 | 0.00 | 0.00 | 0.00 | 47 | 1008.7 |
| 20260506030628 | 57 | 115 | 1.0 | 2.0 | 0.00 | 0.00 | 0.00 | 49 | 1008.7 |
| 20260506030127 | 56 | 113 | 0.0 | 3.0 | 0.00 | 0.00 | 0.00 | 50 | 1008.6 |
| 20260506025627 | 54 | 106 | 0.0 | 5.0 | 0.00 | 0.00 | 0.00 | 54 | 1008.7 |
| 20260506025127 | 52 | 132 | 0.0 | 4.0 | 0.00 | 0.00 | 0.00 | 58 | 1008.8 |
| 20260506024627 | 51 | 161 | 0.0 | 0.0 | 0.00 | 0.00 | 0.00 | 63 | 1008.8 |
| 20260506024126 | 50 | 161 | 0.0 | 0.0 | 0.00 | 0.00 | 0.00 | 66 | 1008.8 |
| 20260506023626 | 49 | 161 | 0.0 | 2.0 | 0.00 | 0.00 | 0.00 | 67 | 1008.9 |
| 20260506023126 | 49 | 127 | 0.0 | 0.0 | 0.00 | 0.00 | 0.00 | 67 | 1008.9 |
| 20260506022625 | 49 | 127 | 0.0 | 0.0 | 0.00 | 0.00 | 0.00 | 66 | 1008.9 |
| 20260506022125 | 50 | 127 | 0.0 | 0.0 | 0.00 | 0.00 | 0.00 | 66 | 1008.9 |
| 20260506021625 | 50 | 127 | 0.0 | 0.0 | 0.00 | 0.00 | 0.00 | 66 | 1008.9 |
| 20260506021125 | 50 | 127 | 0.0 | 0.0 | 0.00 | 0.00 | 0.00 | 65 | 1008.8 |
| 20260506020624 | 50 | 127 | 0.0 | 0.0 | 0.00 | 0.00 | 0.00 | 64 | 1008.8 |
| 20260506020124 | 50 | 127 | 0.0 | 0.0 | 0.00 | 0.00 | 0.00 | 63 | 1008.8 |
| 20260506015624 | 50 | 127 | 0.0 | 0.0 | 0.00 | 0.00 | 0.00 | 63 | 1008.7 |
| 20260506015123 | 51 | 127 | 0.0 | 0.0 | 0.00 | 0.00 | 0.00 | 63 | 1008.7 |
| 20260506014623 | 51 | 127 | 0.0 | 0.0 | 0.00 | 0.00 | 0.00 | 62 | 1008.7 |
| 20260506014123 | 51 | 127 | 0.0 | 0.0 | 0.00 | 0.00 | 0.00 | 60 | 1008.8 |
| 20260506013623 | 51 | 127 | 0.0 | 0.0 | 0.00 | 0.00 | 0.00 | 58 | 1008.8 |
| 20260506013122 | 52 | 127 | 0.0 | 0.0 | 0.00 | 0.00 | 0.00 | 57 | 1008.8 |
| 20260506012622 | 52 | 127 | 0.0 | 0.0 | 0.00 | 0.00 | 0.00 | 56 | 1008.8 |
| 20260506012122 | 53 | 127 | 0.0 | 0.0 | 0.00 | 0.00 | 0.00 | 55 | 1008.8 |
| 20260506011621 | 53 | 127 | 0.0 | 0.0 | 0.00 | 0.00 | 0.00 | 54 | 1008.8 |
| 20260506011121 | 54 | 127 | 0.0 | 0.0 | 0.00 | 0.00 | 0.00 | 51 | 1008.7 |
| 20260506010621 | 55 | 127 | 0.0 | 0.0 | 0.00 | 0.00 | 0.00 | 50 | 1008.8 |
| 20260506010121 | 56 | 127 | 0.0 | 0.0 | 0.00 | 0.00 | 0.00 | 47 | 1008.8 |
| 20260506005620 | 56 | 127 | 0.0 | 0.0 | 0.00 | 0.00 | 0.00 | 46 | 1008.8 |
| 20260506005120 | 57 | 127 | 0.0 | 0.0 | 0.00 | 0.00 | 0.00 | 44 | 1008.7 |
| 20260506004620 | 57 | 127 | 0.0 | 0.0 | 0.00 | 0.00 | 0.00 | 43 | 1008.7 |
| 20260506004120 | 57 | 127 | 0.0 | 0.0 | 0.00 | 0.00 | 0.00 | 43 | 1008.7 |
| 20260506003619 | 57 | 127 | 0.0 | 0.0 | 0.00 | 0.00 | 0.00 | 43 | 1008.7 |
| 20260506003119 | 57 | 127 | 0.0 | 0.0 | 0.00 | 0.00 | 0.00 | 42 | 1008.7 |
| 20260506002619 | 58 | 127 | 0.0 | 0.0 | 0.00 | 0.00 | 0.00 | 41 | 1008.7 |
| 20260506002118 | 58 | 127 | 0.0 | 0.0 | 0.00 | 0.00 | 0.00 | 41 | 1008.7 |
| 20260506001618 | 59 | 127 | 0.0 | 0.0 | 0.00 | 0.00 | 0.00 | 40 | 1008.7 |
| 20260506001118 | 59 | 127 | 0.0 | 0.0 | 0.00 | 0.00 | 0.00 | 39 | 1008.7 |
| 20260506000618 | 59 | 127 | 0.0 | 0.0 | 0.00 | 0.00 | 0.00 | 38 | 1008.7 |
| 20260506000117 | 59 | 127 | 0.0 | 0.0 | 0.00 | 0.00 | 0.00 | 38 | 1008.6 |
| 20260505235617 | 59 | 127 | 0.0 | 0.0 | 0.00 | 0.00 | 0.00 | 38 | 1008.6 |
| 20260505235117 | 59 | 127 | 0.0 | 4.0 | 0.00 | 0.00 | 0.00 | 39 | 1008.5 |
| 20260505234616 | 59 | 168 | 0.0 | 3.0 | 0.00 | 0.00 | 0.00 | 39 | 1008.5 |
| 20260505234116 | 59 | 184 | 0.0 | 5.0 | 0.00 | 0.00 | 0.00 | 39 | 1008.5 |
| 20260505233616 | 58 | 151 | 0.0 | 0.0 | 0.00 | 0.00 | 0.00 | 41 | 1008.5 |
| 20260505233116 | 58 | 151 | 0.0 | 0.0 | 0.00 | 0.00 | 0.00 | 42 | 1008.5 |
| 20260505232615 | 58 | 151 | 0.0 | 0.0 | 0.00 | 0.00 | 0.00 | 42 | 1008.6 |
| 20260505232115 | 58 | 151 | 0.0 | 0.0 | 0.00 | 0.00 | 0.00 | 41 | 1008.6 |
| 20260505231615 | 59 | 151 | 0.0 | 0.0 | 0.00 | 0.00 | 0.00 | 41 | 1008.6 |
| 20260505231114 | 60 | 151 | 0.0 | 0.0 | 0.00 | 0.00 | 0.00 | 38 | 1008.6 |
| 20260505230614 | 60 | 151 | 0.0 | 0.0 | 0.00 | 0.00 | 0.00 | 37 | 1008.7 |
| 20260505230114 | 60 | 151 | 0.0 | 0.0 | 0.00 | 0.00 | 0.00 | 36 | 1008.6 |
| 20260505225614 | 61 | 151 | 0.0 | 0.0 | 0.00 | 0.00 | 0.00 | 36 | 1008.7 |
| 20260505225113 | 61 | 151 | 0.0 | 0.0 | 0.00 | 0.00 | 0.00 | 36 | 1008.7 |
| 20260505224613 | 61 | 151 | 0.0 | 0.0 | 0.00 | 0.00 | 0.00 | 36 | 1008.8 |
| 20260505224113 | 62 | 151 | 0.0 | 0.0 | 0.00 | 0.00 | 0.00 | 35 | 1008.7 |
| 20260505223612 | 62 | 151 | 0.0 | 0.0 | 0.00 | 0.00 | 0.00 | 35 | 1008.7 |
| 20260505223112 | 62 | 151 | 0.0 | 0.0 | 0.00 | 0.00 | 0.00 | 33 | 1008.8 |
| 20260505222612 | 62 | 151 | 0.0 | 3.0 | 0.00 | 0.00 | 0.00 | 33 | 1008.8 |
| 20260505222112 | 62 | 158 | 0.0 | 5.0 | 0.00 | 0.00 | 0.00 | 33 | 1008.8 |
| 20260505221611 | 62 | 165 | 0.0 | 5.0 | 0.00 | 0.00 | 0.00 | 34 | 1008.8 |
| 20260505221111 | 62 | 210 | 4.0 | 4.0 | 0.00 | 0.00 | 0.00 | 34 | 1008.8 |
| 20260505220611 | 62 | 149 | 0.0 | 2.0 | 0.00 | 0.00 | 0.00 | 34 | 1008.8 |
| 20260505220110 | 62 | 223 | 0.0 | 0.0 | 0.00 | 0.00 | 0.00 | 34 | 1008.8 |
| 20260505215610 | 63 | 223 | 0.0 | 3.0 | 0.00 | 0.00 | 0.00 | 33 | 1008.8 |
| 20260505215110 | 63 | 196 | 0.0 | 4.0 | 0.00 | 0.00 | 0.00 | 33 | 1008.8 |
| 20260505214610 | 63 | 215 | 1.0 | 4.0 | 0.00 | 0.00 | 0.00 | 33 | 1008.8 |
| 20260505214109 | 63 | 163 | 0.0 | 2.0 | 0.00 | 0.00 | 0.00 | 33 | 1008.8 |
| 20260505213609 | 63 | 194 | 0.0 | 2.0 | 0.00 | 0.00 | 0.00 | 33 | 1008.8 |
| 20260505213109 | 63 | 102 | 0.0 | 0.0 | 0.00 | 0.00 | 0.00 | 34 | 1008.8 |
| 20260505212608 | 62 | 102 | 0.0 | 0.0 | 0.00 | 0.00 | 0.00 | 34 | 1008.8 |
| 20260505212108 | 62 | 102 | 0.0 | 0.0 | 0.00 | 0.00 | 0.00 | 35 | 1008.8 |
| 20260505211608 | 62 | 102 | 0.0 | 0.0 | 0.00 | 0.00 | 0.00 | 35 | 1008.7 |
| 20260505211108 | 62 | 102 | 0.0 | 1.0 | 0.00 | 0.00 | 0.00 | 35 | 1008.8 |
| 20260505210607 | 61 | 170 | 0.0 | 0.0 | 0.00 | 0.00 | 0.00 | 36 | 1008.8 |
| 20260505210107 | 62 | 170 | 0.0 | 1.0 | 0.00 | 0.00 | 0.00 | 36 | 1008.7 |
| 20260505205607 | 62 | 170 | 0.0 | 2.0 | 0.00 | 0.00 | 0.00 | 35 | 1008.8 |
| 20260505205107 | 62 | 160 | 0.0 | 0.0 | 0.00 | 0.00 | 0.00 | 35 | 1008.7 |
| 20260505204606 | 63 | 160 | 0.0 | 0.0 | 0.00 | 0.00 | 0.00 | 34 | 1008.7 |
| 20260505204106 | 63 | 160 | 0.0 | 1.0 | 0.00 | 0.00 | 0.00 | 34 | 1008.8 |
| 20260505203606 | 63 | 160 | 1.0 | 1.0 | 0.00 | 0.00 | 0.00 | 34 | 1008.7 |
| 20260505203105 | 63 | 177 | 0.0 | 2.0 | 0.00 | 0.00 | 0.00 | 33 | 1008.6 |
| 20260505202605 | 64 | 184 | 0.0 | 0.0 | 0.00 | 0.00 | 0.00 | 32 | 1008.6 |
| 20260505202105 | 64 | 184 | 0.0 | 0.0 | 0.00 | 0.00 | 0.00 | 32 | 1008.6 |
| 20260505201605 | 65 | 184 | 0.0 | 0.0 | 0.00 | 0.00 | 0.00 | 31 | 1008.5 |
| 20260505201104 | 65 | 184 | 0.0 | 0.0 | 0.00 | 0.00 | 0.00 | 30 | 1008.5 |
| 20260505200604 | 65 | 184 | 0.0 | 1.0 | 0.00 | 0.00 | 0.00 | 30 | 1008.5 |
| 20260505200104 | 65 | 213 | 0.0 | 3.0 | 0.00 | 0.00 | 0.00 | 30 | 1008.5 |
| 20260505195603 | 65 | 194 | 0.0 | 2.0 | 0.00 | 0.00 | 0.00 | 29 | 1008.5 |
| 20260505195103 | 65 | 153 | 0.0 | 6.0 | 0.00 | 0.00 | 0.00 | 30 | 1008.4 |
| 20260505194603 | 65 | 180 | 0.0 | 0.0 | 0.00 | 0.00 | 0.00 | 30 | 1008.4 |
| 20260505194103 | 65 | 180 | 0.0 | 2.0 | 0.00 | 0.00 | 0.00 | 30 | 1008.4 |
| 20260505193602 | 65 | 210 | 0.0 | 2.0 | 0.00 | 0.00 | 0.00 | 29 | 1008.3 |
| 20260505193102 | 66 | 191 | 0.0 | 1.0 | 0.00 | 0.00 | 0.00 | 29 | 1008.4 |
| 20260505192602 | 66 | 168 | 0.0 | 4.0 | 0.00 | 0.00 | 0.00 | 29 | 1008.4 |
| 20260505192101 | 66 | 150 | 0.0 | 0.0 | 0.00 | 0.00 | 0.00 | 29 | 1008.4 |
| 20260505191601 | 66 | 150 | 0.0 | 0.0 | 0.00 | 0.00 | 0.00 | 29 | 1008.4 |
| 20260505191101 | 66 | 150 | 0.0 | 2.0 | 0.00 | 0.00 | 0.00 | 29 | 1008.3 |
| 20260505190601 | 66 | 199 | 1.0 | 4.0 | 0.00 | 0.00 | 0.00 | 28 | 1008.3 |
| 20260505190100 | 66 | 208 | 0.0 | 0.0 | 0.00 | 0.00 | 0.00 | 29 | 1008.3 |
| 20260505185600 | 66 | 208 | 0.0 | 0.0 | 0.00 | 0.00 | 0.00 | 28 | 1008.3 |
| 20260505185100 | 67 | 208 | 0.0 | 5.0 | 0.00 | 0.00 | 0.00 | 28 | 1008.3 |
| 20260505184559 | 67 | 203 | 0.0 | 0.0 | 0.00 | 0.00 | 0.00 | 28 | 1008.2 |
| 20260505184059 | 67 | 203 | 0.0 | 0.0 | 0.00 | 0.00 | 0.00 | 27 | 1008.2 |
| 20260505183559 | 68 | 203 | 0.0 | 0.0 | 0.00 | 0.00 | 0.00 | 27 | 1008.2 |
| 20260505183059 | 68 | 203 | 0.0 | 0.0 | 0.00 | 0.00 | 0.00 | 25 | 1008.2 |
| 20260505182558 | 69 | 203 | 0.0 | 0.0 | 0.00 | 0.00 | 0.00 | 25 | 1008.2 |
| 20260505182058 | 69 | 203 | 0.0 | 4.0 | 0.00 | 0.00 | 0.00 | 25 | 1008.2 |
| 20260505181558 | 69 | 229 | 0.0 | 7.0 | 0.00 | 0.00 | 0.00 | 25 | 1008.1 |
| 20260505181057 | 69 | 189 | 0.0 | 6.0 | 0.00 | 0.00 | 0.00 | 24 | 1008.1 |
| 20260505180557 | 70 | 180 | 1.0 | 3.0 | 0.00 | 0.00 | 0.00 | 24 | 1008.0 |
| 20260505180057 | 70 | 151 | 0.0 | 6.0 | 0.00 | 0.00 | 0.00 | 23 | 1008.0 |
| 20260505175557 | 70 | 203 | 4.0 | 4.0 | 0.00 | 0.00 | 0.00 | 23 | 1008.0 |
| 20260505175056 | 70 | 153 | 0.0 | 7.0 | 0.00 | 0.00 | 0.00 | 23 | 1008.0 |
| 20260505174556 | 70 | 153 | 0.0 | 5.0 | 0.00 | 0.00 | 0.00 | 23 | 1008.0 |
| 20260505174056 | 70 | 246 | 2.0 | 7.0 | 0.00 | 0.00 | 0.00 | 22 | 1008.0 |
| 20260505173555 | 71 | 165 | 1.0 | 6.0 | 0.00 | 0.00 | 0.00 | 22 | 1007.9 |
| 20260505173055 | 71 | 196 | 1.0 | 9.0 | 0.00 | 0.00 | 0.00 | 21 | 1007.9 |
| 20260505172555 | 71 | 203 | 4.0 | 7.0 | 0.00 | 0.00 | 0.00 | 21 | 1007.9 |
| 20260505172055 | 71 | 156 | 4.0 | 9.0 | 0.00 | 0.00 | 0.00 | 20 | 1007.9 |
| 20260505171554 | 72 | 203 | 6.0 | 11.0 | 0.00 | 0.00 | 0.00 | 20 | 1007.8 |
| 20260505171054 | 72 | 177 | 2.0 | 8.0 | 0.00 | 0.00 | 0.00 | 20 | 1007.8 |
| 20260505170554 | 72 | 198 | 3.0 | 10.0 | 0.00 | 0.00 | 0.00 | 19 | 1007.8 |
| 20260505170053 | 73 | 229 | 3.0 | 12.0 | 0.00 | 0.00 | 0.00 | 19 | 1007.8 |
| 20260505165553 | 73 | 203 | 5.0 | 11.0 | 0.00 | 0.00 | 0.00 | 18 | 1007.8 |
| 20260505165053 | 73 | 175 | 0.0 | 10.0 | 0.00 | 0.00 | 0.00 | 19 | 1007.8 |
| 20260505164553 | 73 | 216 | 6.0 | 11.0 | 0.00 | 0.00 | 0.00 | 18 | 1007.8 |
| 20260505164052 | 73 | 198 | 4.0 | 14.0 | 0.00 | 0.00 | 0.00 | 17 | 1007.9 |
| 20260505163552 | 74 | 213 | 3.0 | 11.0 | 0.00 | 0.00 | 0.00 | 18 | 1007.9 |
| 20260505163052 | 74 | 213 | 10.0 | 12.0 | 0.00 | 0.00 | 0.00 | 19 | 1007.9 |
| 20260505162552 | 74 | 163 | 5.0 | 17.0 | 0.00 | 0.00 | 0.00 | 16 | 1007.9 |
| 20260505162051 | 74 | 201 | 6.0 | 12.0 | 0.00 | 0.00 | 0.00 | 17 | 1007.8 |
| 20260505161551 | 74 | 201 | 2.0 | 15.0 | 0.00 | 0.00 | 0.00 | 17 | 1007.9 |
| 20260505161051 | 74 | 180 | 3.0 | 11.0 | 0.00 | 0.00 | 0.00 | 17 | 1007.9 |
| 20260505160550 | 74 | 217 | 9.0 | 15.0 | 0.00 | 0.00 | 0.00 | 17 | 1007.9 |
| 20260505153048 | 75 | 198 | 9.0 | 19.0 | 0.00 | 0.00 | 0.00 | 15 | 1008.0 |
| 20260505152548 | 75 | 213 | 4.0 | 14.0 | 0.00 | 0.00 | 0.00 | 15 | 1008.0 |
| 20260505152048 | 75 | 234 | 6.0 | 16.0 | 0.00 | 0.00 | 0.00 | 15 | 1008.1 |
| 20260505151548 | 75 | 123 | 9.0 | 14.0 | 0.00 | 0.00 | 0.00 | 15 | 1008.0 |
| 20260505151047 | 75 | 220 | 8.0 | 12.0 | 0.00 | 0.00 | 0.00 | 15 | 1008.1 |
| 20260505150547 | 75 | 153 | 6.0 | 13.0 | 0.00 | 0.00 | 0.00 | 15 | 1008.1 |
| 20260505140544 | 77 | 216 | 4.0 | 15.0 | 0.00 | 0.00 | 0.00 | 17 | 1008.8 |
| 20260505125039 | 76 | 209 | 6.0 | 15.0 | 0.00 | 0.00 | 0.00 | 17 | 1009.6 |
| 20260505124539 | 76 | 251 | 5.0 | 15.0 | 0.00 | 0.00 | 0.00 | 17 | 1009.7 |
| 20260505124039 | 76 | 208 | 9.0 | 16.0 | 0.00 | 0.00 | 0.00 | 18 | 1009.8 |
| 20260505123538 | 76 | 213 | 9.0 | 18.0 | 0.00 | 0.00 | 0.00 | 18 | 1009.9 |
| 20260505123038 | 76 | 171 | 7.0 | 13.0 | 0.00 | 0.00 | 0.00 | 17 | 1010.0 |
| 20260505122538 | 77 | 178 | 6.0 | 13.0 | 0.00 | 0.00 | 0.00 | 18 | 1010.0 |
| 20260505122038 | 77 | 236 | 4.0 | 13.0 | 0.00 | 0.00 | 0.00 | 18 | 1010.1 |
| 20260505121537 | 76 | 209 | 9.0 | 13.0 | 0.00 | 0.00 | 0.00 | 19 | 1010.2 |
| 20260505121037 | 76 | 236 | 8.0 | 19.0 | 0.00 | 0.00 | 0.00 | 17 | 1010.3 |
| 20260505120537 | 76 | 168 | 4.0 | 12.0 | 0.00 | 0.00 | 0.00 | 18 | 1010.2 |
| 20260505120036 | 76 | 212 | 5.0 | 14.0 | 0.00 | 0.00 | 0.00 | 18 | 1010.4 |
| 20260505115536 | 75 | 203 | 4.0 | 12.0 | 0.00 | 0.00 | 0.00 | 18 | 1010.4 |
| 20260505115036 | 75 | 188 | 4.0 | 15.0 | 0.00 | 0.00 | 0.00 | 18 | 1010.5 |
| 20260505114536 | 76 | 205 | 8.0 | 10.0 | 0.00 | 0.00 | 0.00 | 17 | 1010.6 |
| 20260505114035 | 75 | 244 | 2.0 | 16.0 | 0.00 | 0.00 | 0.00 | 17 | 1010.7 |
| 20260505113535 | 75 | 217 | 10.0 | 16.0 | 0.00 | 0.00 | 0.00 | 17 | 1010.7 |
| 20260505113035 | 75 | 241 | 4.0 | 14.0 | 0.00 | 0.00 | 0.00 | 18 | 1010.8 |
| 20260505112534 | 75 | 192 | 5.0 | 16.0 | 0.00 | 0.00 | 0.00 | 20 | 1010.8 |
| 20260505112034 | 75 | 189 | 6.0 | 14.0 | 0.00 | 0.00 | 0.00 | 17 | 1010.8 |
| 20260505111534 | 75 | 175 | 5.0 | 15.0 | 0.00 | 0.00 | 0.00 | 18 | 1010.9 |
| 20260505111034 | 75 | 251 | 8.0 | 15.0 | 0.00 | 0.00 | 0.00 | 17 | 1011.0 |
| 20260505110533 | 75 | 196 | 6.0 | 19.0 | 0.00 | 0.00 | 0.00 | 18 | 1011.0 |